Theta_e
348 352 348 346 346 346 346 346 346 346 346 341 338 336 336 336 336 335 336 340 342 345 343 342 338 338 337 323 322 326 327 330 333 334 337 338 341 343 340 335 336 339 331
350 354 348 346 345 346 346 346 346 347 347 342 337 336 337 337 336 336 336 338 339 341 339 336 330 324 318 318 322 329 330 329 331 331 334 337 343 341 337 332 333 336 328
352 355 349 345 345 347 347 347 347 347 346 343 338 339 341 339 338 337 337 337 335 335 333 323 317 316 318 322 325 329 333 334 334 332 332 339 340 335 335 335 335 334 329
354 355 353 344 343 347 348 347 348 348 346 344 342 345 343 340 338 336 336 334 334 329 320 317 318 320 320 329 333 335 338 339 338 337 342 342 340 329 334 336 337 336 333
354 355 352 342 341 344 347 348 347 347 347 345 345 345 343 340 337 335 334 333 329 320 317 317 316 318 321 330 336 339 338 335 333 336 340 339 340 334 332 334 337 336 335
353 353 347 340 340 340 343 345 346 347 347 345 345 344 342 338 335 334 331 328 321 317 316 315 315 317 324 328 331 331 330 329 334 340 338 338 339 336 331 335 334 333 331
352 352 351 339 339 338 337 339 341 343 344 345 345 343 338 335 334 332 327 321 318 317 315 314 314 314 317 320 322 324 326 329 335 337 336 329 339 335 334 334 336 334 332
352 353 352 340 337 337 336 336 337 338 341 342 341 338 335 334 332 326 322 320 318 316 315 314 313 313 314 316 318 321 323 324 327 324 327 327 325 338 336 336 335 335 332
351 353 353 349 339 336 336 335 334 335 336 337 336 335 335 334 329 323 321 319 317 316 316 315 316 316 316 317 317 318 319 320 327 325 324 326 322 326 330 334 336 335 333
350 352 352 351 348 346 342 336 334 333 334 336 336 336 335 331 324 322 321 319 318 317 317 317 317 318 318 319 319 319 318 318 323 320 326 331 331 329 322 325 332 335 335
349 352 351 351 349 347 346 342 335 334 334 336 337 337 335 334 324 323 323 320 318 317 318 318 318 318 318 318 318 317 317 327 326 326 327 331 334 333 332 328 330 332 334
348 351 351 351 350 348 346 346 344 342 339 338 343 343 342 340 334 333 325 321 320 319 318 318 318 318 318 330 327 320 326 328 331 331 329 328 331 333 333 333 333 333 333
347 349 350 352 351 348 346 347 347 346 345 344 338 338 343 341 339 335 335 332 332 323 330 324 323 329 330 330 331 329 330 330 334 335 335 334 334 334 334 334 334 333 333
347 348 349 350 351 349 348 347 346 346 346 344 343 334 339 340 340 340 338 338 335 336 331 323 330 322 327 333 333 334 335 335 336 337 337 336 335 335 335 335 334 333 333
347 347 348 350 350 350 349 347 346 346 345 345 344 344 338 340 340 341 340 338 335 335 331 323 321 325 333 336 338 339 339 338 338 337 337 336 337 336 336 335 335 335 335
347 348 348 349 349 348 350 349 347 347 347 346 346 344 337 335 333 339 340 338 334 326 326 326 327 330 334 337 340 341 340 339 339 337 340 339 334 336 336 335 336 335 335
348 349 349 349 350 347 350 349 348 347 347 346 347 347 341 334 334 334 332 331 331 328 326 325 328 335 337 339 342 342 339 340 339 337 336 335 335 338 337 338 338 337 336
349 350 350 350 349 349 348 349 349 347 347 347 346 346 345 342 336 334 336 335 330 331 330 330 334 337 340 343 342 344 341 339 338 336 334 329 336 340 341 337 340 339 337
346 350 350 350 350 349 348 349 349 348 348 346 343 335 332 343 343 337 337 336 332 332 330 332 334 337 344 344 344 342 341 340 336 334 329 330 336 337 340 342 340 340 340
328 343 349 350 350 349 349 349 348 348 348 346 340 330 332 345 345 342 341 338 337 335 336 329 334 339 341 340 343 343 341 337 335 333 330 332 334 331 333 339 340 341 341
319 323 343 347 348 348 348 347 346 346 347 346 345 343 345 344 344 344 346 343 341 340 336 333 337 333 342 342 342 343 337 335 331 333 330 334 337 331 331 331 333 343 341
316 319 320 338 346 347 347 347 346 345 345 345 345 345 345 344 343 338 343 343 342 341 338 334 334 341 345 343 345 341 341 338 336 334 336 335 336 335 333 331 332 332 341
321 317 320 327 341 345 346 347 346 346 345 344 344 344 343 342 342 341 338 339 341 339 340 336 333 341 343 342 342 343 344 342 340 339 334 334 335 336 335 334 333 332 333
323 326 323 328 338 343 345 345 346 345 346 345 344 343 343 340 339 338 338 339 340 342 341 339 335 335 341 345 340 340 340 338 345 341 338 335 337 333 334 336 335 332 332
318 324 328 330 337 342 345 345 346 347 347 346 345 345 344 344 341 337 337 339 341 342 342 341 342 342 342 339 338 338 339 341 341 340 341 339 338 335 334 335 333 334 332
316 321 327 334 338 343 344 345 346 346 347 346 347 346 347 346 345 344 345 345 344 344 343 341 338 335 334 333 331 333 336 338 340 342 343 342 341 339 336 334 333 333 334
Wind_Speed
19 25 32 32 29 30 31 31 32 32 31 32 32 31 28 25 24 22 21 19 18 16 15 13 12 11 10 11 13 14 15 15 14 13 11 9 9 7 6 6 9 7 7
26 27 34 34 30 28 29 30 32 35 33 32 32 30 26 24 22 21 20 18 17 15 13 12 12 12 13 14 16 16 15 15 14 12 10 10 9 7 5 5 6 6 6
29 28 34 36 33 30 30 30 31 36 36 33 32 29 25 24 22 20 19 17 16 15 13 13 13 14 15 16 16 15 14 13 12 10 10 7 7 6 5 5 4 5 5
28 29 29 36 35 32 32 33 35 37 35 32 31 28 25 23 22 20 18 17 16 15 15 14 13 13 14 15 14 13 11 10 8 7 5 4 5 5 5 4 3 3 3
28 27 30 37 36 35 33 35 35 36 34 32 31 28 26 24 22 20 19 17 16 15 15 14 13 13 13 14 13 11 9 7 6 5 4 1 2 1 3 3 2 2 3
30 29 32 36 36 36 35 34 34 34 33 32 31 29 26 24 22 21 20 18 17 16 15 14 13 12 12 12 11 9 7 5 4 2 3 5 1 3 2 1 2 1 1
29 27 28 34 33 33 33 33 33 33 33 32 31 30 27 25 22 21 20 19 18 17 15 14 13 13 12 10 9 7 6 4 2 1 1 2 0 4 3 3 2 2 2
26 27 27 33 32 30 30 31 31 32 32 32 31 29 27 25 24 23 21 19 18 17 15 15 13 12 11 9 8 7 6 4 3 3 3 3 2 3 5 5 5 4 4
23 24 25 27 31 30 29 30 30 30 31 31 31 29 26 25 24 23 21 19 18 16 15 13 12 11 9 7 6 5 4 4 4 4 3 2 3 4 5 6 7 7 7
23 24 25 24 26 26 28 30 29 28 28 29 29 28 27 25 24 22 21 19 16 15 13 12 11 10 8 6 6 5 5 5 5 5 4 3 3 4 6 7 7 8 10
20 24 24 25 25 25 26 27 29 28 28 28 27 27 26 22 24 22 21 19 18 16 14 12 10 8 7 6 5 5 5 5 5 5 6 4 2 2 2 6 7 7 9
24 26 26 26 26 26 24 24 25 26 27 27 23 22 21 20 22 20 20 19 16 14 13 10 8 7 6 5 5 5 5 4 4 4 4 5 4 5 5 6 7 8 9
20 23 25 26 27 27 27 25 24 22 23 24 27 24 20 17 17 18 15 16 14 14 10 10 9 7 6 5 5 5 5 4 4 5 5 6 6 6 6 7 8 8 10
25 25 25 25 27 28 25 27 26 25 23 22 23 27 23 20 18 16 15 14 14 12 12 11 7 7 6 4 4 5 4 5 5 7 8 9 10 9 10 9 9 8 11
24 27 27 27 27 27 26 24 25 26 27 24 22 24 24 20 18 16 16 14 14 11 10 11 10 8 6 5 5 6 6 7 9 9 10 12 12 11 11 11 12 10 10
23 26 27 29 31 32 30 27 27 25 24 24 22 25 28 24 23 19 16 16 15 16 12 11 10 7 7 8 7 7 9 9 11 11 10 13 15 14 11 11 11 13 13
28 24 29 30 30 33 33 32 28 25 24 23 20 20 28 30 27 25 22 21 20 17 15 14 13 9 8 6 9 10 11 11 11 12 14 13 15 16 12 12 11 13 15
21 26 28 28 30 33 36 31 28 27 27 26 24 19 22 27 30 28 24 22 22 19 16 15 13 11 9 6 8 10 12 11 12 13 14 12 13 13 12 12 11 13 15
25 23 25 28 30 36 33 27 27 26 29 31 30 35 32 32 31 32 28 24 22 20 19 18 15 14 10 7 8 11 15 14 14 14 12 10 10 12 12 12 13 12 15
30 26 23 25 29 28 26 26 25 26 28 27 24 31 31 28 28 33 28 29 27 24 22 21 21 14 14 9 7 10 16 17 16 16 13 9 4 13 16 14 14 11 11
29 29 24 24 29 28 28 29 29 31 30 27 26 28 30 39 36 30 24 25 29 26 24 25 17 16 15 10 4 6 9 14 12 8 7 6 7 6 12 14 17 14 13
29 34 37 35 29 31 31 30 23 28 27 29 31 32 35 38 38 35 34 24 23 26 30 26 19 15 10 12 7 3 1 4 0 7 7 12 11 14 10 15 21 20 17
21 31 34 35 35 36 31 24 18 16 13 22 25 30 37 36 36 35 31 30 25 25 21 27 23 20 13 12 11 5 3 4 3 3 9 13 7 16 19 21 24 21 23
17 19 27 26 30 29 30 29 29 26 21 26 27 27 27 33 31 29 29 27 27 19 18 22 17 23 16 9 6 14 11 6 3 7 10 11 16 15 24 24 21 21 23
14 17 19 24 26 27 31 30 28 25 23 15 21 22 24 26 31 28 27 25 26 26 22 16 12 12 15 9 11 18 21 18 15 12 11 13 18 16 22 29 27 23 21
18 14 16 21 27 28 30 33 32 28 24 21 19 21 21 22 23 25 23 22 24 24 25 24 19 14 19 31 34 35 36 26 12 10 7 8 8 15 25 25 26 26 16
Wind_Direction
164 165 169 170 168 169 170 173 173 167 162 158 158 157 154 150 147 147 145 146 146 143 141 143 141 143 144 135 127 123 120 113 107 103 99 95 110 108 79 81 79 84 88
159 163 168 170 170 171 173 175 177 172 165 162 161 159 156 154 153 151 151 153 151 152 152 151 152 151 142 135 129 124 119 114 108 103 99 88 101 93 79 85 93 98 94
156 160 166 171 170 171 172 173 173 171 168 165 164 161 161 159 158 156 156 157 157 156 157 157 153 142 138 134 133 130 124 118 112 107 101 102 104 95 89 87 87 84 89
157 159 164 173 172 170 169 169 168 168 169 168 166 166 165 163 162 161 161 163 161 158 158 154 145 141 142 140 137 133 131 124 119 109 100 104 97 87 95 105 114 96 80
157 161 166 174 176 173 168 168 168 170 172 172 171 171 170 169 167 166 166 165 164 161 157 150 148 148 147 145 143 142 139 134 119 94 70 50 173 143 97 107 103 94 93
162 164 171 176 179 177 174 172 173 174 177 177 176 176 174 173 172 171 169 167 166 164 158 153 153 152 151 152 152 157 156 146 116 88 53 32 174 207 160 160 158 164 66
162 164 169 178 182 182 179 178 179 179 180 180 180 179 178 177 175 174 172 170 169 166 160 158 160 160 161 162 166 169 171 169 172 206 341 8 267 207 216 236 265 294 318
165 164 168 181 183 187 184 183 183 183 184 183 183 183 181 180 177 177 176 175 173 168 164 163 163 165 165 166 173 180 193 205 219 246 249 274 270 224 231 246 263 276 283
167 167 170 175 185 189 191 187 186 187 188 188 187 186 185 183 182 181 179 178 175 171 168 167 167 168 166 171 177 194 212 234 239 248 245 262 271 241 239 243 245 255 257
170 175 176 179 181 183 191 193 192 191 193 194 192 191 188 186 186 186 183 181 179 175 175 176 176 177 177 184 194 214 232 253 255 270 257 267 305 275 247 245 248 247 248
179 181 183 183 184 185 188 191 194 195 196 199 199 198 193 188 189 190 188 186 183 182 182 185 188 190 195 206 221 236 259 260 266 262 263 282 308 302 279 249 260 265 255
186 187 187 187 187 187 190 191 191 192 193 196 199 203 198 197 190 187 192 192 191 191 191 194 199 210 222 236 252 270 267 272 290 272 261 271 278 283 287 278 278 260 249
197 192 193 192 189 189 191 191 191 194 192 194 197 202 206 205 200 192 193 195 198 199 197 202 210 224 239 253 260 259 268 287 297 299 295 294 285 280 282 286 283 262 246
197 198 197 198 196 195 195 195 194 192 196 196 199 202 204 204 207 203 198 196 200 199 204 206 220 239 254 268 270 279 284 296 299 305 304 293 282 276 275 267 275 262 246
199 200 202 198 199 198 198 201 199 198 199 199 200 204 207 205 208 212 209 206 202 213 218 221 223 243 258 274 286 295 300 303 302 303 306 305 296 287 274 269 258 250 242
210 206 203 203 200 199 202 204 205 202 200 201 202 206 212 214 215 214 217 217 216 214 229 238 245 238 257 280 290 299 305 304 305 310 306 305 306 295 282 259 258 252 252
212 202 205 204 201 203 204 204 206 207 204 202 205 213 217 217 220 223 221 228 228 228 223 237 241 243 252 272 293 297 300 302 306 310 312 310 315 311 285 263 254 253 253
221 205 203 204 206 205 207 206 205 205 204 202 198 209 228 231 222 221 222 223 230 233 227 231 228 234 240 247 276 293 291 295 304 305 306 309 314 320 300 256 246 251 254
223 214 205 204 207 208 208 204 208 207 206 208 214 221 235 242 232 222 226 225 225 231 234 234 234 229 233 236 264 287 290 287 296 290 290 293 317 327 318 304 278 263 248
240 229 217 210 208 210 203 198 203 208 213 217 219 213 227 223 233 228 225 231 227 227 230 234 233 231 235 241 266 285 290 292 284 276 269 262 293 349 332 322 306 301 280
246 235 226 213 211 201 198 194 197 204 207 209 211 218 223 230 224 229 232 231 229 224 231 229 228 229 236 225 240 280 316 292 282 291 208 282 258 326 355 323 325 309 296
247 238 231 225 212 209 202 200 201 206 209 211 210 215 218 223 227 227 229 238 239 235 230 229 220 227 213 213 177 120 330 292 187 5 245 316 286 292 312 331 336 322 296
244 240 231 224 217 212 207 200 199 188 196 204 213 218 222 226 225 224 233 233 233 239 237 239 224 222 211 217 209 157 176 229 293 244 247 270 293 284 300 311 321 325 304
247 244 236 229 218 213 201 194 194 199 201 210 210 215 215 220 222 222 227 231 237 232 223 232 237 235 224 224 220 233 255 198 213 299 286 275 281 303 303 305 311 319 309
264 243 236 224 219 210 202 200 201 204 212 207 208 210 212 215 219 221 221 226 231 229 226 228 208 225 218 242 289 305 285 279 277 263 277 272 291 282 295 308 314 308 309
279 253 229 215 211 206 202 199 197 199 198 200 201 207 210 213 213 216 217 221 230 234 230 213 202 246 282 294 290 274 271 272 270 242 248 263 266 294 296 301 300 302 293